Regional Weather Roundup
Issued by NWS

Home | Current Version | Previous Version | Graphics & Text | Print | Product List | Glossary On
Versions: 1 2 3 4 5 6 7 8 9 10 11 12 13 14 15 16 17 18 19 20 21 22 23 24 25 26 27 28 29 30 31 32 33 34 35 36 37 38 39 40 41 42 43 44 45 46 47 48 49 50
000
ASUS43 KFSD 230602
RWRSD

WEATHER ROUNDUP FOR SOUTH DAKOTA
NATIONAL WEATHER SERVICE SIOUX FALLS SD
100 AM CDT MON OCT 23 2017

NOTE: "FAIR" INDICATES FEW OR NO CLOUDS BELOW 12,000 FEET WITH NO
SIGNIFICANT WEATHER AND/OR OBSTRUCTIONS TO VISIBILITY.


SDZ001>005-009-010-012>017-230700-
NORTHWEST AND NORTH CENTRAL SOUTH DAKOTA

CITY           SKY/WX    TMP DP  RH WIND       PRES   REMARKS
BUFFALO          N/A     48  31  51 NW22      29.90R
MOBRIDGE       PTCLDY    52  44  74 W16G22    29.82R
$$

SDZ012>016-024>037-041>051-057-063-072>074-230700-
SOUTHWEST AND SOUTH CENTRAL SOUTH DAKOTA

CITY           SKY/WX    TMP DP  RH WIND       PRES   REMARKS
RAPID CTY ARPT CLOUDY    54  34  46 NW16      30.02R
PIERRE         CLOUDY    54  48  80 W10       29.89R
CUSTER         LGT RAIN  43  32  65 NW18G33   30.09R
ELLSWORTH AFB  CLOUDY    53  35  51 NW17      30.02R
PHILIP         CLOUDY    56  42  59 NW13      29.94S
PINE RIDGE     CLOUDY    58  34  40 N22G36    30.02R
SPEARFISH      FAIR      52  21  30 NW22G32   30.05R
WINNER         FAIR      52  36  54 NW9       29.88R
$$

SDZ004>011-016>023-039-040-230700-
NORTHEAST SOUTH DAKOTA

CITY           SKY/WX    TMP DP  RH WIND       PRES   REMARKS
ABERDEEN       CLOUDY    54  47  77 W10       29.77S
WATERTOWN      CLOUDY    51  39  63 S6        29.78F
BROOKINGS      MOCLDY    50  34  54 S5        29.81S
SISSETON         N/A     61  37  41 W18G29    29.72R
$$

SDZ017-020-022-023-036>040-048>070-230700-
SOUTHEAST SOUTH DAKOTA

CITY           SKY/WX    TMP DP  RH WIND       PRES   REMARKS
SIOUX FALLS    PTCLDY    54  34  46 S9        29.81F
HURON          MOCLDY    51  39  63 W7        29.81R
MITCHELL       CLEAR     50  36  58 S3        29.80R
YANKTON        CLOUDY    57  31  37 S10       29.83F
$$

ABBREVIATIONS USED IN REMARKS
   TC - TEMPERATURE IN CELSIUS
  WCI - WIND CHILL INDEX
   HX - HEAT INDEX
  VSB - VISIBILITY





USA.gov is the U.S. government's official web portal to all federal, state and local government web resources and services.